Wind_Speed
17 14 10 14 5 11 17 12 11 10 8 8 6 9 7 6 7 5 13 8 12 8 9 10 9 9 9 9 8 6 5 6 5 4 5 6 7 8 9 7 7 7 7 6 6 6 6 7 9
23 20 15 4 5 18 17 12 13 11 9 10 10 8 7 9 2 10 7 10 11 8 9 8 8 8 9 8 7 5 4 4 5 7 7 7 6 6 7 7 7 6 6 5 6 5 6 7 8
18 14 11 4 19 20 17 14 12 9 9 7 8 8 4 8 11 9 7 10 12 7 8 9 8 7 8 8 7 5 4 4 7 10 6 5 6 4 5 5 6 6 5 5 5 4 6 8 8
14 13 22 18 20 18 16 13 12 11 10 8 8 7 11 11 7 6 8 13 9 5 7 7 8 6 6 7 7 6 4 4 5 6 3 2 4 2 2 4 5 5 5 4 5 5 7 9 9
12 7 10 18 18 16 14 14 13 11 10 7 7 8 3 4 6 6 8 11 12 12 7 6 7 7 6 6 6 6 5 5 4 4 3 2 2 2 1 1 3 4 4 4 4 5 7 7 10
6 8 11 16 14 14 13 13 12 12 9 11 11 8 4 1 3 5 6 10 9 4 5 7 6 6 6 6 6 6 6 5 5 4 3 3 3 2 2 3 2 1 3 3 3 5 6 7 8
8 4 9 9 13 11 11 13 10 13 10 7 9 5 3 6 3 4 4 9 9 9 7 5 6 6 5 5 5 5 5 4 4 4 4 4 4 4 3 4 5 3 2 3 2 4 5 7 8
2 1 3 9 9 10 7 8 10 9 8 8 7 3 4 2 3 3 2 3 7 7 3 4 5 6 6 5 5 4 3 2 2 5 6 7 7 7 7 6 6 5 5 5 5 4 5 6 8
3 6 6 6 7 5 5 2 5 6 7 6 6 5 3 4 3 3 4 5 5 2 0 2 5 6 6 6 5 5 4 2 4 9 9 9 9 11 9 8 8 8 7 7 7 7 6 7 7
7 11 5 3 4 4 2 2 2 2 2 2 4 5 4 5 3 3 4 6 6 5 5 3 1 6 6 6 4 4 4 4 12 18 16 14 13 13 12 11 11 11 9 8 8 8 7 8 9
4 10 4 4 2 2 2 2 2 2 1 3 4 4 4 4 4 3 6 6 4 4 4 4 3 3 3 2 2 5 8 7 10 15 21 21 19 15 15 15 14 12 11 9 9 9 8 7 9
8 8 6 6 5 4 4 4 5 5 2 2 5 4 3 3 2 3 8 9 7 1 1 1 1 2 4 3 2 3 5 10 11 15 19 15 20 19 17 15 11 13 12 11 9 10 9 10 10
10 11 10 8 10 8 8 8 7 7 6 4 8 8 4 1 1 3 6 10 6 3 3 2 1 1 1 1 2 4 7 9 11 16 18 7 18 23 22 20 20 18 14 12 11 13 9 10 11
13 13 14 12 10 10 10 8 8 6 9 7 11 6 7 5 4 3 6 9 7 4 5 4 2 1 2 3 3 6 8 10 9 11 22 14 13 25 27 26 22 19 17 14 13 13 11 12 12
17 17 15 15 10 9 8 10 12 7 7 9 12 8 9 11 11 8 7 8 8 7 5 3 3 3 4 3 8 9 10 9 11 12 16 18 16 21 32 30 27 23 21 18 17 15 13 13 13
16 16 18 11 7 9 10 6 4 3 8 10 13 13 14 14 15 12 11 10 10 9 7 5 4 5 3 5 8 9 11 11 12 13 12 17 15 11 29 31 30 27 23 20 19 17 16 14 13
19 22 18 19 9 9 11 16 4 7 9 12 14 15 15 16 18 14 17 13 12 10 9 7 7 6 8 11 12 11 10 11 14 14 15 16 15 7 14 28 32 29 26 23 22 21 19 18 18
21 22 19 18 12 6 13 17 14 10 9 12 14 17 19 17 20 16 17 16 14 13 12 8 8 8 9 18 20 14 11 12 12 13 14 13 12 8 6 21 28 30 28 26 24 22 23 20 19
22 22 21 18 12 15 18 19 17 14 15 14 12 17 19 19 18 22 19 18 18 18 15 9 6 7 17 24 24 19 15 15 13 13 11 11 9 9 10 8 23 26 25 31 31 26 22 23 23
19 21 23 22 21 20 21 21 17 16 15 13 13 14 17 17 19 22 24 21 22 24 18 10 10 9 17 25 13 16 19 15 13 16 13 10 9 6 4 3 7 15 23 22 30 30 25 27 23
20 21 21 21 20 21 17 22 20 17 12 9 11 12 15 16 19 23 26 23 24 29 21 18 17 18 36 27 20 12 13 13 12 15 14 12 10 6 3 3 5 6 8 12 17 19 19 23 24
24 18 20 20 19 22 20 24 20 10 11 9 6 4 7 12 15 21 26 27 27 32 25 24 15 23 16 21 12 10 14 16 15 14 16 15 12 10 7 6 7 8 9 9 11 13 16 17 19
22 17 18 18 20 21 24 21 17 13 11 12 6 3 4 5 14 19 26 28 27 37 26 25 15 12 15 15 11 12 12 14 14 14 18 16 14 13 10 10 8 8 8 10 12 14 16 13 14
21 18 18 19 21 22 23 24 27 20 7 10 3 4 7 10 9 15 24 29 31 28 28 20 18 9 21 22 11 6 13 13 11 14 19 16 15 15 12 11 12 9 9 10 11 11 12 13 13
22 20 19 17 17 15 21 27 25 8 7 8 11 11 8 14 6 11 22 25 12 17 23 22 23 27 16 16 4 6 9 11 11 15 16 16 17 17 16 14 13 11 8 9 10 11 11 11 11
20 22 22 15 12 15 21 13 18 15 14 11 13 10 6 4 3 8 15 5 10 11 15 23 23 20 7 9 5 7 9 9 13 13 16 16 14 13 14 15 14 12 10 8 9 10 10 10 11
23 25 22 25 23 18 18 14 12 12 15 11 9 9 6 7 4 8 5 3 2 3 8 16 18 15 17 11 5 6 8 9 11 12 13 9 5 4 8 9 14 11 12 8 8 8 9 9 10
26 21 17 21 16 16 18 15 14 8 7 3 1 6 6 5 8 4 3 5 3 6 5 9 20 18 14 8 4 7 7 8 9 11 8 8 6 1 6 11 15 13 9 7 7 7 8 8 9
24 26 24 25 26 13 13 13 15 6 6 3 2 3 4 6 5 3 7 4 2 5 6 3 13 17 6 3 5 4 7 6 8 8 5 5 4 3 3 5 8 10 9 8 7 7 7 7 8
25 23 25 26 21 22 20 21 7 6 5 4 5 4 2 4 4 6 5 2 1 1 2 9 11 10 8 4 3 4 5 4 8 8 7 6 3 0 2 3 5 5 6 7 8 9 8 6 7
Wind_Direction
81 77 85 52 4 64 61 63 58 56 50 52 57 47 54 44 37 91 136 146 144 144 143 133 135 131 124 120 127 123 124 109 117 128 91 93 95 89 90 96 106 113 120 119 114 107 111 121 122
76 46 38 45 360 65 59 61 61 69 75 54 50 33 62 43 70 123 143 149 142 138 134 126 130 128 124 123 125 125 128 100 107 141 116 96 100 97 89 87 89 98 120 119 112 115 121 127 125
76 57 57 349 60 62 69 64 62 49 45 52 42 64 72 110 102 113 137 136 155 143 135 137 125 123 125 121 121 126 123 101 104 133 112 78 89 93 89 89 85 88 102 114 114 122 131 131 127
74 47 61 67 69 66 67 60 50 41 50 62 65 62 84 120 105 157 147 138 153 130 130 136 122 120 124 125 129 131 136 141 135 162 205 110 109 126 139 85 80 81 96 119 123 130 137 137 133
43 9 101 75 71 67 60 60 56 50 61 68 61 104 107 138 142 142 145 145 130 205 158 148 138 132 139 139 137 137 143 153 155 168 168 161 165 161 130 146 81 73 75 117 131 136 143 149 142
319 17 87 76 72 66 64 55 55 53 56 78 74 80 116 140 138 136 135 141 145 199 171 152 157 151 151 152 154 153 157 170 179 184 193 196 210 202 195 225 242 101 115 102 136 150 150 157 153
328 8 52 83 88 63 58 60 59 53 52 83 91 75 104 131 152 120 110 143 159 167 206 169 166 164 166 170 168 175 172 186 196 214 222 229 230 214 212 230 251 223 194 162 155 159 166 171 171
22 329 111 55 71 73 65 58 56 47 65 74 97 14 133 147 115 142 70 145 151 167 227 192 181 169 173 181 181 200 207 208 264 255 245 236 245 234 225 223 234 234 214 192 190 176 172 191 187
255 288 34 48 28 83 55 47 39 60 58 70 81 93 147 50 95 136 143 122 133 132 53 164 193 175 183 194 196 207 221 242 305 292 270 251 233 240 233 229 222 238 229 211 209 207 208 208 206
302 315 25 12 41 30 22 45 345 39 333 49 86 64 46 52 79 125 143 125 113 97 65 150 173 173 181 192 199 224 200 138 4 351 283 251 239 238 238 233 228 229 227 216 215 220 220 218 207
293 318 352 11 319 331 315 311 285 320 166 264 232 29 30 52 72 146 169 180 134 91 73 65 65 134 170 185 219 242 234 257 320 324 325 238 234 234 236 237 232 227 223 217 211 214 220 204 211
275 283 290 299 300 312 303 300 280 260 313 243 209 299 358 26 78 138 167 197 190 175 91 61 62 116 136 151 255 290 272 283 306 321 335 233 233 229 233 238 235 224 226 222 212 221 214 212 222
274 278 278 281 291 284 289 274 264 262 239 249 206 282 301 331 171 177 186 189 210 230 216 222 215 205 220 187 254 278 293 303 308 330 352 331 243 239 229 228 228 219 216 219 211 235 223 222 228
270 283 279 278 280 282 301 258 250 262 226 224 207 287 260 233 237 224 207 201 211 236 227 215 202 248 262 290 304 298 297 306 311 325 348 335 288 240 235 227 222 220 217 221 228 232 233 226 232
267 279 280 271 249 278 295 260 246 235 232 218 215 238 226 222 213 259 238 214 220 229 237 221 212 229 252 335 336 312 311 312 312 323 340 338 323 243 224 226 225 217 216 225 231 234 236 231 231
268 269 275 269 250 256 276 334 189 283 245 231 227 221 220 227 210 243 244 260 231 224 232 228 236 257 278 286 285 292 308 314 315 323 339 342 347 266 226 222 221 218 217 225 226 231 237 239 246
251 250 256 262 241 268 272 277 252 296 264 250 240 228 228 220 210 241 246 260 247 224 230 235 249 294 314 312 293 286 292 312 315 324 341 357 351 327 235 226 226 221 220 223 228 235 239 243 248
248 245 243 257 267 277 259 259 276 272 274 276 247 242 232 227 220 238 247 250 243 235 229 240 273 292 307 329 300 281 297 303 308 314 326 351 355 5 269 229 223 223 220 222 225 234 238 239 244
258 264 275 267 262 281 274 279 283 271 279 269 245 243 238 230 225 224 235 238 231 239 234 242 268 296 335 315 319 285 280 291 299 304 314 329 354 353 38 216 223 229 228 234 228 229 238 247 254
254 256 256 261 263 267 273 270 273 273 275 275 260 245 241 231 222 222 228 224 234 247 254 236 222 279 336 326 332 333 235 272 299 305 306 311 331 358 347 106 209 244 235 246 234 229 240 247 251
249 253 260 265 271 267 262 269 269 268 265 265 264 254 246 236 223 223 224 228 239 247 256 233 228 340 334 305 294 326 291 287 293 297 295 301 306 311 306 276 224 221 221 237 227 239 243 248 251
254 253 260 264 265 264 251 263 252 260 253 270 239 240 248 240 227 221 220 229 231 248 252 243 251 354 8 17 332 329 284 282 290 296 296 300 294 288 275 242 236 232 229 236 243 249 254 248 250
252 255 257 261 263 266 255 260 273 255 247 250 219 237 292 267 240 212 218 232 228 253 257 255 249 332 0 358 327 320 308 282 273 282 289 296 287 278 267 264 245 235 243 246 244 250 255 246 249
246 254 252 252 254 253 248 250 259 251 253 259 237 260 299 303 229 209 206 232 247 270 250 245 228 321 334 311 305 319 303 292 282 283 288 293 275 266 255 247 241 233 238 248 251 253 258 255 260
228 229 240 239 234 244 247 229 239 253 293 248 270 288 286 295 221 212 192 228 279 297 248 240 244 252 308 302 313 317 299 300 298 288 285 287 275 265 244 234 233 235 241 257 252 249 254 251 255
219 226 240 246 246 254 225 224 251 257 264 278 274 274 274 226 237 189 196 266 289 288 251 245 259 264 240 286 319 300 300 315 294 298 306 299 283 275 247 241 243 244 247 255 257 246 246 257 264
230 221 236 259 272 281 268 231 223 239 256 269 242 256 217 252 237 156 119 134 189 220 250 259 247 223 227 255 278 293 302 317 297 312 324 326 307 280 220 229 225 239 254 242 245 252 246 248 264
228 226 234 242 260 276 248 247 255 210 240 118 12 210 228 225 169 122 101 120 50 66 39 262 234 234 223 247 258 271 324 324 310 326 342 13 33 191 177 206 217 241 236 242 243 247 258 259 265
215 233 241 250 236 263 249 249 58 126 132 112 138 210 174 174 150 130 141 123 27 71 37 353 254 224 185 232 253 305 331 329 329 334 324 335 12 79 130 186 207 216 215 221 234 251 255 268 280
231 221 228 243 247 264 293 290 146 151 143 172 187 252 176 170 188 160 166 129 339 225 96 86 117 119 163 236 252 302 314 332 341 344 345 334 343 29 184 196 217 243 265 276 262 247 244 251 267
Height
3177 3175 3174 3169 3177 3176 3176 3178 3177 3177 3177 3177 3177 3175 3176 3174 3174 3177 3175 3177 3178 3175 3178 3179 3179 3180 3180 3180 3182 3182 3183 3184 3184 3185 3185 3186 3186 3186 3186 3186 3186 3186 3187 3188 3188 3188 3189 3190 3191
3179 3176 3174 3175 3180 3177 3181 3180 3180 3180 3179 3179 3179 3179 3179 3176 3173 3174 3175 3177 3179 3176 3178 3179 3180 3180 3180 3181 3182 3184 3184 3185 3185 3185 3187 3187 3187 3187 3188 3187 3187 3188 3189 3189 3189 3190 3190 3191 3192
3182 3180 3178 3181 3182 3182 3184 3184 3183 3182 3181 3182 3181 3180 3179 3177 3177 3178 3176 3177 3180 3177 3178 3180 3181 3181 3181 3182 3183 3184 3185 3186 3186 3187 3187 3188 3189 3189 3189 3189 3189 3190 3189 3190 3190 3191 3191 3192 3193
3183 3182 3183 3189 3187 3188 3188 3187 3187 3185 3184 3183 3183 3181 3180 3180 3180 3178 3177 3179 3179 3178 3179 3180 3181 3181 3182 3183 3183 3184 3186 3187 3188 3188 3189 3189 3189 3190 3191 3191 3191 3191 3191 3192 3192 3192 3193 3193 3194
3185 3184 3188 3191 3191 3191 3190 3189 3189 3188 3186 3185 3185 3184 3180 3179 3179 3178 3178 3181 3182 3180 3180 3180 3181 3181 3182 3183 3184 3185 3186 3187 3188 3189 3189 3189 3190 3191 3190 3190 3192 3192 3192 3192 3193 3194 3194 3195 3196
3190 3189 3188 3191 3193 3193 3192 3192 3191 3190 3189 3187 3186 3185 3184 3181 3179 3179 3179 3182 3185 3184 3180 3180 3180 3181 3182 3183 3184 3185 3187 3187 3188 3189 3189 3190 3191 3191 3191 3192 3192 3194 3194 3194 3194 3195 3196 3197 3198
3193 3192 3191 3191 3192 3195 3195 3194 3193 3192 3191 3190 3188 3188 3183 3182 3180 3180 3180 3183 3184 3185 3181 3180 3181 3181 3182 3183 3185 3185 3186 3187 3188 3189 3189 3188 3190 3191 3192 3192 3192 3194 3194 3194 3195 3196 3197 3198 3199
3193 3192 3191 3190 3191 3195 3196 3195 3195 3194 3192 3189 3189 3189 3185 3182 3181 3181 3182 3182 3183 3183 3181 3181 3181 3182 3183 3183 3184 3185 3186 3187 3188 3188 3188 3189 3190 3191 3191 3192 3192 3193 3194 3194 3196 3196 3197 3198 3199
3195 3194 3191 3193 3193 3195 3195 3195 3195 3194 3192 3192 3189 3189 3185 3183 3182 3182 3182 3182 3182 3183 3183 3181 3182 3182 3183 3184 3184 3185 3186 3187 3188 3188 3188 3188 3189 3190 3190 3191 3192 3193 3194 3194 3195 3196 3196 3198 3199
3197 3194 3195 3196 3195 3195 3195 3195 3195 3194 3194 3193 3190 3188 3186 3184 3183 3182 3182 3183 3183 3183 3183 3183 3180 3181 3183 3183 3185 3185 3185 3186 3186 3187 3185 3186 3186 3187 3188 3189 3191 3192 3192 3194 3195 3196 3197 3197 3199
3199 3195 3196 3196 3195 3195 3194 3194 3194 3193 3190 3193 3191 3188 3187 3185 3184 3184 3184 3185 3184 3184 3184 3183 3182 3181 3182 3184 3184 3184 3184 3184 3185 3185 3182 3180 3182 3184 3186 3187 3188 3190 3191 3193 3194 3195 3196 3197 3199
3200 3197 3197 3195 3195 3195 3194 3193 3193 3193 3193 3192 3191 3188 3187 3186 3185 3185 3185 3186 3184 3184 3183 3182 3182 3182 3182 3183 3183 3184 3184 3184 3183 3182 3178 3176 3179 3181 3184 3185 3187 3188 3190 3191 3192 3194 3195 3197 3198
3198 3197 3195 3194 3193 3193 3193 3192 3192 3192 3192 3189 3189 3187 3187 3187 3186 3186 3185 3185 3183 3182 3182 3182 3183 3182 3182 3182 3182 3183 3183 3182 3182 3180 3177 3176 3177 3178 3180 3182 3184 3185 3188 3190 3191 3192 3194 3196 3198
3195 3195 3194 3192 3191 3191 3190 3189 3189 3189 3189 3188 3186 3186 3186 3186 3186 3185 3185 3184 3183 3183 3183 3182 3182 3183 3182 3183 3182 3182 3182 3181 3179 3177 3176 3174 3172 3172 3175 3178 3181 3183 3185 3187 3190 3191 3192 3195 3196
3195 3193 3190 3188 3187 3189 3188 3187 3187 3187 3186 3187 3185 3184 3184 3184 3185 3184 3184 3184 3182 3182 3183 3184 3183 3182 3182 3182 3181 3180 3179 3178 3177 3176 3174 3170 3165 3165 3168 3173 3176 3180 3182 3184 3187 3190 3191 3193 3194
3193 3191 3186 3182 3184 3184 3186 3183 3187 3184 3185 3185 3184 3183 3182 3182 3183 3183 3182 3182 3180 3182 3183 3183 3183 3181 3182 3181 3178 3177 3176 3175 3175 3174 3172 3167 3163 3160 3164 3168 3173 3176 3179 3182 3184 3187 3189 3190 3191
3188 3185 3183 3180 3182 3183 3184 3181 3181 3181 3183 3183 3182 3182 3180 3180 3180 3181 3179 3181 3180 3181 3182 3183 3182 3183 3182 3181 3178 3177 3175 3173 3172 3171 3168 3167 3162 3159 3161 3165 3169 3173 3176 3179 3181 3183 3186 3187 3188
3181 3178 3177 3178 3179 3179 3181 3178 3178 3177 3179 3179 3179 3179 3178 3178 3178 3177 3177 3179 3180 3180 3179 3181 3181 3182 3182 3180 3177 3173 3174 3172 3172 3170 3168 3165 3164 3160 3158 3160 3165 3169 3173 3175 3178 3181 3181 3183 3185
3179 3177 3176 3175 3177 3179 3179 3177 3176 3175 3174 3172 3175 3175 3175 3176 3176 3175 3174 3176 3177 3176 3177 3179 3179 3178 3179 3177 3172 3169 3172 3172 3171 3169 3167 3165 3163 3161 3157 3158 3162 3166 3170 3171 3173 3177 3179 3180 3182
3176 3176 3176 3176 3177 3177 3174 3173 3172 3172 3171 3170 3169 3170 3171 3172 3173 3172 3171 3173 3173 3172 3174 3175 3173 3173 3173 3173 3170 3168 3170 3171 3168 3167 3166 3163 3162 3161 3160 3159 3161 3163 3166 3168 3169 3172 3174 3176 3178
3174 3173 3173 3173 3173 3171 3172 3170 3169 3167 3166 3166 3166 3167 3168 3168 3170 3169 3169 3169 3168 3167 3170 3170 3170 3176 3173 3163 3166 3167 3170 3169 3166 3164 3164 3163 3161 3160 3160 3161 3161 3160 3163 3164 3167 3169 3170 3172 3173
3169 3170 3170 3171 3171 3168 3167 3162 3161 3161 3162 3163 3162 3163 3165 3166 3165 3168 3167 3164 3165 3163 3165 3167 3171 3173 3168 3163 3164 3163 3164 3164 3164 3163 3161 3160 3159 3158 3158 3159 3160 3160 3161 3162 3164 3165 3166 3167 3169
3167 3167 3167 3167 3166 3165 3163 3160 3154 3157 3158 3160 3159 3161 3164 3164 3163 3164 3163 3160 3163 3159 3162 3165 3171 3171 3167 3163 3161 3161 3162 3161 3161 3160 3159 3158 3156 3155 3155 3155 3157 3157 3159 3160 3161 3162 3162 3162 3164
3164 3165 3164 3165 3163 3159 3157 3157 3151 3150 3151 3157 3156 3158 3160 3159 3160 3158 3162 3159 3158 3155 3160 3166 3169 3165 3165 3166 3161 3157 3159 3159 3157 3157 3155 3154 3152 3152 3152 3152 3153 3155 3156 3157 3158 3159 3159 3160 3161
3159 3161 3159 3156 3151 3148 3147 3148 3146 3147 3150 3154 3155 3156 3158 3156 3155 3155 3157 3155 3155 3154 3158 3161 3162 3163 3164 3163 3158 3156 3157 3157 3155 3154 3152 3149 3148 3147 3146 3148 3150 3152 3154 3154 3155 3156 3157 3157 3158
3154 3155 3152 3146 3139 3136 3137 3140 3143 3147 3148 3151 3153 3154 3154 3154 3152 3152 3154 3154 3153 3154 3156 3157 3159 3160 3161 3159 3157 3156 3155 3154 3153 3151 3149 3145 3143 3144 3145 3147 3149 3150 3152 3152 3153 3154 3154 3154 3155
3150 3149 3151 3147 3143 3140 3135 3137 3139 3142 3146 3148 3149 3149 3151 3149 3150 3151 3151 3151 3152 3153 3153 3154 3154 3155 3155 3156 3154 3154 3153 3151 3151 3149 3146 3142 3141 3140 3141 3143 3146 3149 3150 3149 3150 3151 3150 3150 3151
3144 3146 3148 3145 3143 3137 3131 3133 3133 3137 3142 3144 3146 3147 3146 3147 3147 3148 3149 3150 3150 3151 3150 3149 3148 3149 3149 3152 3152 3153 3151 3150 3150 3147 3144 3143 3141 3140 3140 3141 3142 3146 3147 3147 3148 3148 3149 3148 3148
3140 3141 3141 3139 3137 3133 3130 3129 3130 3136 3139 3143 3145 3144 3144 3145 3145 3147 3148 3149 3149 3149 3148 3147 3145 3145 3148 3150 3152 3152 3152 3150 3149 3146 3144 3143 3142 3141 3141 3142 3143 3144 3143 3144 3145 3145 3146 3146 3146
3133 3134 3138 3137 3137 3134 3131 3129 3132 3136 3138 3141 3143 3143 3143 3143 3144 3145 3147 3148 3148 3148 3147 3146 3144 3146 3146 3150 3150 3151 3151 3150 3148 3146 3144 3142 3140 3141 3141 3142 3143 3144 3144 3145 3144 3143 3143 3142 3144